Tracking 35274 objects as of 11-Sep-2026
HD Live streaming from Space Station
objects crossing your sky now

SL-4 R/B


SL-4 R/B is no longer on orbit


NORAD ID: 8464
Int'l Code: 1975-113B
Launch date: December 3, 1975
Source: Commonwealth of Independent States (former USSR) (CIS)
Launch site: PLESETSK MISSILE AND SPACE COMPLEX (PKMTR)
Decay date: 1975-12-07

Note: This is a ROCKET BODY
Your satellite tracking list
Your tracking list is empty




NASA's NSSDC Master Catalog

Two Line Element Set (TLE):
1 08464U 75113  B 75341.03939961  .03712703 +00000-0 +00000-0 0  9992
2 08464 081.3273 241.1282 0004280 334.7108 025.3920 16.35401466000599
Source of the keplerian elements: AFSPC